| time (UTC) | temp F | wind direction | speed MPH | gust MPH | rain 1hr in | rain 24hr in | rain mn in | humidity % | barometer mb |
| 20260831144601 | 58 | 246 | 14.0 | 25.0 | 0.00 | 0.00 | 0.00 | 56 | 1015.0 |
| 20260831143056 | 57 | 286 | 11.0 | 17.0 | 0.00 | 0.00 | 0.00 | 57 | 1015.1 |
| 20260831141559 | 56 | 280 | 10.0 | 17.0 | 0.00 | 0.00 | 0.00 | 59 | 1014.9 |
| 20260831140107 | 55 | 255 | 8.0 | 14.0 | 0.00 | 0.00 | 0.00 | 61 | 1014.9 |
| 20260831134601 | 53 | 263 | 6.0 | 13.0 | 0.00 | 0.00 | 0.00 | 66 | 1014.6 |
| 20260831133100 | 52 | 271 | 9.0 | 14.0 | 0.00 | 0.00 | 0.00 | 67 | 1014.5 |
| 20260831131557 | 51 | 273 | 9.0 | 13.0 | 0.00 | 0.00 | 0.00 | 68 | 1014.3 |
| 20260831124559 | 51 | 290 | 8.0 | 15.0 | 0.00 | 0.00 | 0.00 | 69 | 1013.9 |
| 20260831123059 | 51 | 267 | 10.0 | 14.0 | 0.00 | 0.00 | 0.00 | 69 | 1013.7 |
| 20260831121610 | 50 | 275 | 9.0 | 14.0 | 0.00 | 0.00 | 0.00 | 70 | 1013.8 |
| 20260831120100 | 50 | 273 | 9.0 | 15.0 | 0.00 | 0.00 | 0.00 | 70 | 1013.4 |
| 20260831114600 | 50 | 270 | 8.0 | 14.0 | 0.00 | 0.00 | 0.00 | 71 | 1013.5 |
| 20260831113106 | 49 | 281 | 9.0 | 14.0 | 0.00 | 0.00 | 0.00 | 72 | 1013.5 |
| 20260831111614 | 50 | 313 | 10.0 | 16.0 | 0.00 | 0.00 | 0.00 | 71 | 1013.5 |
| 20260831110101 | 50 | 269 | 8.0 | 15.0 | 0.00 | 0.00 | 0.00 | 71 | 1013.5 |
| 20260831104601 | 49 | 288 | 7.0 | 15.0 | 0.00 | 0.00 | 0.00 | 73 | 1013.3 |
| 20260831103106 | 48 | 265 | 9.0 | 12.0 | 0.00 | 0.00 | 0.00 | 75 | 1013.1 |
| 20260831101605 | 48 | 279 | 6.0 | 11.0 | 0.00 | 0.00 | 0.00 | 75 | 1013.0 |
| 20260831100059 | 48 | 245 | 3.0 | 6.0 | 0.00 | 0.00 | 0.00 | 75 | 1013.0 |
| 20260831094604 | 47 | 254 | 1.0 | 6.0 | 0.00 | 0.00 | 0.00 | 76 | 1013.0 |
| 20260831093108 | 48 | 336 | 1.0 | 6.0 | 0.00 | 0.00 | 0.00 | 75 | 1013.1 |
| 20260831091615 | 47 | 320 | 3.0 | 9.0 | 0.00 | 0.00 | 0.00 | 76 | 1012.7 |
| 20260831090118 | 46 | 11 | 1.0 | 3.0 | 0.00 | 0.00 | 0.00 | 78 | 1012.6 |
| 20260831084601 | 46 | 11 | 0.0 | 1.0 | 0.00 | 0.02 | 0.00 | 78 | 1012.6 |
| 20260831083113 | 47 | 11 | 2.0 | 4.0 | 0.00 | 0.02 | 0.00 | 77 | 1012.3 |
| 20260831081602 | 48 | 309 | 2.0 | 7.0 | 0.00 | 0.02 | 0.00 | 75 | 1012.3 |
| 20260831080109 | 49 | 318 | 4.0 | 8.0 | 0.00 | 0.02 | 0.00 | 72 | 1012.1 |
| 20260831074559 | 50 | 240 | 5.0 | 12.0 | 0.00 | 0.02 | 0.00 | 71 | 1012.1 |
| 20260831073056 | 50 | 227 | 7.0 | 14.0 | 0.00 | 0.02 | 0.00 | 71 | 1012.0 |
| 20260831071603 | 50 | 237 | 10.0 | 16.0 | 0.00 | 0.02 | 0.00 | 71 | 1011.8 |
| 20260831070100 | 50 | 246 | 9.0 | 15.0 | 0.00 | 0.02 | 0.00 | 71 | 1012.0 |
| 20260831064603 | 51 | 238 | 7.0 | 13.0 | 0.00 | 0.02 | 0.00 | 69 | 1012.0 |
| 20260831063100 | 52 | 219 | 6.0 | 13.0 | 0.00 | 0.02 | 0.00 | 66 | 1012.4 |
| 20260831061558 | 53 | 263 | 7.0 | 13.0 | 0.00 | 0.02 | 0.00 | 65 | 1012.5 |
| 20260831060100 | 53 | 208 | 7.0 | 12.0 | 0.00 | 0.02 | 0.00 | 65 | 1012.2 |
| 20260831054623 | 53 | 221 | 7.0 | 13.0 | 0.00 | 0.02 | 0.02 | 64 | 1012.4 |
| 20260831053103 | 54 | 229 | 6.0 | 13.0 | 0.00 | 0.02 | 0.02 | 62 | 1012.2 |
| 20260831051558 | 55 | 238 | 8.0 | 13.0 | 0.00 | 0.02 | 0.02 | 61 | 1012.1 |
| 20260831050059 | 55 | 253 | 5.0 | 10.0 | 0.00 | 0.02 | 0.02 | 61 | 1012.1 |
| 20260831044602 | 55 | 236 | 6.0 | 12.0 | 0.00 | 0.02 | 0.02 | 61 | 1012.3 |
| 20260831043102 | 54 | 244 | 6.0 | 11.0 | 0.00 | 0.02 | 0.02 | 63 | 1012.1 |
| 20260831041622 | 55 | 289 | 8.0 | 14.0 | 0.00 | 0.02 | 0.02 | 61 | 1012.2 |
| 20260831040059 | 59 | 256 | 12.0 | 26.0 | 0.00 | 0.02 | 0.02 | 49 | 1011.9 |
| 20260831034607 | 59 | 246 | 13.0 | 23.0 | 0.00 | 0.02 | 0.02 | 48 | 1011.8 |
| 20260831033100 | 60 | 225 | 13.0 | 25.0 | 0.00 | 0.02 | 0.02 | 47 | 1011.7 |
| 20260831031605 | 60 | 251 | 12.0 | 22.0 | 0.00 | 0.02 | 0.02 | 47 | 1011.6 |
| 20260831030117 | 60 | 229 | 13.0 | 23.0 | 0.00 | 0.02 | 0.02 | 47 | 1011.5 |
| 20260831024559 | 60 | 235 | 12.0 | 26.0 | 0.00 | 0.02 | 0.02 | 47 | 1011.3 |
| 20260831023103 | 60 | 238 | 15.0 | 31.0 | 0.00 | 0.02 | 0.02 | 46 | 1011.1 |
| 20260831021601 | 60 | 266 | 16.0 | 26.0 | 0.00 | 0.02 | 0.02 | 46 | 1011.0 |
| 20260831014558 | 61 | 222 | 15.0 | 25.0 | 0.00 | 0.02 | 0.02 | 46 | 1010.7 |
| 20260831013056 | 62 | 303 | 12.0 | 24.0 | 0.00 | 0.02 | 0.02 | 44 | 1010.7 |
| 20260831011608 | 62 | 314 | 19.0 | 34.0 | 0.00 | 0.02 | 0.02 | 43 | 1010.6 |
| 20260831004558 | 62 | 281 | 15.0 | 29.0 | 0.00 | 0.02 | 0.02 | 44 | 1010.7 |
| 20260831003057 | 63 | 269 | 17.0 | 38.0 | 0.00 | 0.02 | 0.02 | 43 | 1010.8 |
| 20260831001606 | 63 | 264 | 24.0 | 35.0 | 0.00 | 0.02 | 0.02 | 43 | 1010.6 |
| 20260831000106 | 64 | 273 | 20.0 | 34.0 | 0.00 | 0.02 | 0.02 | 41 | 1010.4 |
| 20260830234606 | 65 | 275 | 20.0 | 31.0 | 0.00 | 0.10 | 0.02 | 40 | 1010.5 |
| 20260830233057 | 65 | 263 | 15.0 | 35.0 | 0.00 | 0.10 | 0.02 | 40 | 1010.3 |
| 20260830231559 | 64 | 264 | 19.0 | 32.0 | 0.00 | 0.10 | 0.02 | 41 | 1010.2 |
| 20260830230104 | 65 | 242 | 20.0 | 33.0 | 0.00 | 0.10 | 0.02 | 39 | 1010.3 |
| 20260830224607 | 64 | 243 | 17.0 | 38.0 | 0.00 | 0.17 | 0.02 | 40 | 1010.2 |
| 20260830223103 | 64 | 231 | 18.0 | 35.0 | 0.00 | 0.17 | 0.02 | 41 | 1010.5 |
| 20260830221624 | 63 | 266 | 17.0 | 26.0 | 0.00 | 0.17 | 0.02 | 43 | 1010.6 |
| 20260830214606 | 62 | 232 | 12.0 | 22.0 | 0.00 | 0.17 | 0.02 | 46 | 1011.0 |
| 20260830213102 | 62 | 224 | 16.0 | 25.0 | 0.00 | 0.17 | 0.02 | 44 | 1011.1 |
| 20260830211600 | 62 | 216 | 14.0 | 30.0 | 0.00 | 0.17 | 0.02 | 44 | 1011.2 |
| 20260830210103 | 62 | 266 | 16.0 | 32.0 | 0.00 | 0.17 | 0.02 | 43 | 1011.2 |
| 20260830204603 | 63 | 296 | 16.0 | 27.0 | 0.00 | 0.17 | 0.02 | 42 | 1011.0 |
| 20260830203103 | 63 | 239 | 16.0 | 29.0 | 0.00 | 0.17 | 0.02 | 40 | 1011.0 |
| 20260830201628 | 63 | 236 | 16.0 | 30.0 | 0.00 | 0.17 | 0.02 | 43 | 1011.1 |
| 20260830200112 | 63 | 300 | 13.0 | 27.0 | 0.00 | 0.17 | 0.02 | 43 | 1011.0 |
| 20260830194608 | 64 | 236 | 15.0 | 31.0 | 0.00 | 0.17 | 0.02 | 41 | 1010.9 |
| 20260830193110 | 65 | 239 | 16.0 | 30.0 | 0.00 | 0.17 | 0.02 | 39 | 1010.9 |
| 20260830191605 | 64 | 261 | 17.0 | 33.0 | 0.00 | 0.17 | 0.02 | 39 | 1010.8 |
| 20260830190059 | 63 | 273 | 16.0 | 28.0 | 0.00 | 0.17 | 0.02 | 40 | 1010.7 |
| 20260830184606 | 64 | 234 | 10.0 | 28.0 | 0.00 | 0.17 | 0.02 | 39 | 1010.8 |
| 20260830183101 | 64 | 211 | 15.0 | 25.0 | 0.00 | 0.17 | 0.02 | 37 | 1010.9 |
| 20260830181600 | 64 | 260 | 14.0 | 25.0 | 0.00 | 0.17 | 0.02 | 38 | 1010.9 |
| 20260830180100 | 64 | 235 | 12.0 | 26.0 | 0.00 | 0.17 | 0.02 | 38 | 1011.1 |
| 20260830174602 | 64 | 233 | 10.0 | 21.0 | 0.00 | 0.17 | 0.02 | 40 | 1010.9 |
| 20260830173108 | 63 | 265 | 11.0 | 25.0 | 0.00 | 0.17 | 0.02 | 43 | 1011.0 |
| 20260830171558 | 63 | 222 | 11.0 | 22.0 | 0.00 | 0.17 | 0.02 | 43 | 1011.1 |
| 20260830170106 | 62 | 194 | 8.0 | 14.0 | 0.00 | 0.17 | 0.02 | 49 | 1011.5 |
| 20260830164610 | 61 | 193 | 7.0 | 16.0 | 0.00 | 0.17 | 0.02 | 50 | 1011.5 |
| 20260830163114 | 60 | 224 | 5.0 | 13.0 | 0.00 | 0.17 | 0.02 | 50 | 1011.5 |
| 20260830161610 | 59 | 195 | 6.0 | 11.0 | 0.00 | 0.17 | 0.02 | 55 | 1011.4 |
| 20260830154611 | 58 | 220 | 4.0 | 9.0 | 0.00 | 0.17 | 0.02 | 55 | 1012.0 |
| 20260830153106 | 58 | 211 | 2.0 | 7.0 | 0.00 | 0.17 | 0.02 | 55 | 1012.0 |
| 20260830151601 | 58 | 0 | 1.0 | 5.0 | 0.00 | 0.17 | 0.02 | 55 | 1012.1 |
| 20260830150105 | 57 | 19 | 0.0 | 3.0 | 0.00 | 0.17 | 0.02 | 59 | 1012.1 |